Disclaimer

Please do not use the information listed here in-flight or in-navigation, as they are not provided to us by the airports but are provided by volunteers, so they might be outdated.

Search


Regions


Airport information page

Radio informations:
Tower (TWR) - 118.3 MHz
TCA - 119.025 MHz
DEP - 120.4 MHz
Automatic Terminal Information Service (ATIS) - 127.45 MHz
Approach (APP) - 121.2 MHz

Airport informations:
Latitude: 34° 12' 51.00" N
Longitude: 134° 00' 56.00" E
Elevation: 607 feet - 185 meters
Operating hours: Remarks
Operating agency: Civil government, landing fees and diplomatic clearance may be required
Timezone: UTC+9
Fuel: Jet A1+, Jet A1 with icing inhibitor.

100/130 MIL Spec, low lead, aviation gasoline (BLUE)

Runway information:
08/26 - 8200 x 200 feet< - >2499 x 61 meters

Recent METARs:
RJOT 212120Z 26010KT 9999 FEW020 SCT030 BKN050 06/01 Q1015 RMK 1CU020 3CU030 6SC050 A2998
RJOT 212120Z 26010KT 9999 FEW020 SCT030 BKN050 06/01 Q1015 RMK 1CU020 3CU030 6SC050 A2998

Airport on the map: